Weather in Port Antonio

Jamaica     18°10′04″N   76°26′34″W
temp.,
°C
wind,
m/s
gust,
m/s
humid.,
%
clouds,
%
prec.,
mm/h
press.,
hPa
HPBL,
m
13 june, sun
sun1301:00+25se578488 0.1 1014557
04:00+25se57837 0.0 1014600
07:00+27se68775 0.0 1015823
10:00+28ese7869100 0.0 1015985
13:00+28ese8970100 0.0 10141018
16:00+28ese8974100 0.1 1013768
19:00+26se7882100 0.1 1014501
22:00+26se578424 0.0 1016502
14 june, mon
mon1401:00+26se688485 0.0 1014591
04:00+26se698586 0.0 1014662
07:00+27se697918 0.3 1016803
10:00+28ese7107043 0.3 10161103
13:00+29ese7968100 0.3 10151073
16:00+28ese796719 0.0 1014934
19:00+26se688157 0.0 1015662
22:00+26se6984100 0.0 1017645
15 june, tue
tue1501:00+26se698493 0.1 1016618
04:00+26se688494 0.1 1015657
07:00+26se687791 0.1 1016781
10:00+28ese7970100 1.1 10171089
13:00+28ese81072100 2.9 10171098
16:00+27se71077100 0.8 1015960
19:00+26se6108173 0.8 1016758
22:00+26se61084100 0.0 1017733
16 june, wed
wed1601:00+26se688497 0.1 1016613
04:00+25se798417 0.3 1016665
07:00+27se7118191 0.4 1016956
10:00+28ese81070100 0.0 10171142
13:00+29ese796659 0.0 10161120
16:00+28ese710685 0.0 1014969
19:00+26se7107878 0.0 1015630
22:00+26se6983100 0.0 1016591
17 june, thu
thu1701:00+26se578580 0.0 1015551
04:00+25se6985100 0.3 1015622
07:00+26ese79797 0.5 1016841
10:00+28ese7106948 0.1 10161164
13:00+29ese7106661 0.1 10151106
16:00+29ese810675 0.0 1013955
19:00+26se687787 0.0 1014581
22:00+26se588398 0.0 1016593